Flag for U.S.A. Weather past 2 weeks in Baker Island, U.S.A.

Now
84 °F

Passing clouds.


Feels Like: 98 °F
Forecast: 82 / 88 °F
Wind: 12 mph from East

Location: Funafuti

Current Time: Sep 2, 2015 at 11:12:40 PM

Latest Report: Sep 2, 2015 at 9:00 PM


Visibility: N/A

Pressure: 29.92 "Hg

Humidity: 89%

Dew point: 81 °F

Location of Baker IslandLocation

Historic Weather in Baker Island — Graph

°F

Baker Island temperature yesterday

Maximum temperature yesterday: 90 °F (at 1:00 PM)
Minimum temperature yesterday: 82 °F (at 12:00 AM)
Average temperature yesterday: 84 °F

Past Weeks' High & Low Weather Summary

 TemperatureHumidityPressure
High90 °F (Aug 19, 11:00 AM)100% (Aug 27, 10:00 AM)29.92 "Hg (Aug 27, 10:00 AM)
Low36 °F (Aug 27, 10:00 AM)59% (Aug 30, 11:00 AM)29.77 "Hg (Aug 22, 3:00 PM)
Average84 °F78%29.84 "Hg
* Reported Aug 18 9:00 PM — Sep 2 9:00 PM, Baker Island, Weather by CustomWeather, © 2015

Note: Actual official high and low records may vary slightly from our data, if they occured in-between our weather recording intervals... More about our weather records

Advertising

Baker Island weather history for previous 24 hours

 ConditionsComfort  
Time TempWeatherWind HumidityBarometerVisibility
9:00 PM
Wed, Sep 2
84 °FPassing clouds.12 mph89%29.92 "HgN/A
8:00 PM82 °FPassing clouds.6 mph89%29.92 "HgN/A
7:00 PM84 °FPassing clouds.2 mph84%29.89 "HgN/A
6:00 PM84 °FBroken clouds.3 mph84%29.89 "HgN/A
5:00 PM84 °FScattered clouds.2 mph79%29.86 "HgN/A
4:00 PM84 °FScattered clouds.1 mph79%29.86 "HgN/A
3:00 PM88 °FScattered clouds.No wind70%29.86 "HgN/A
2:00 PM90 °FScattered clouds.2 mph71%29.86 "HgN/A
1:00 PM88 °FPassing clouds.1 mph75%29.86 "HgN/A
12:00 PM90 °FPassing clouds.3 mph75%29.89 "HgN/A
11:00 AM86 °FPassing clouds.1 mph84%29.92 "HgN/A
10:00 AM81 °FScattered showers. Broken clouds.No wind84%29.92 "HgN/A
9:00 AM88 °FScattered clouds.5 mph79%29.92 "HgN/A
8:00 AM86 °FSprinkles. Broken clouds.3 mph79%29.92 "HgN/A
7:00 AM84 °FBroken clouds.3 mph84%29.92 "HgN/A
6:00 AM82 °FPassing clouds.No wind89%29.89 "HgN/A
5:00 AM82 °FPassing clouds.No wind89%29.86 "HgN/A
4:00 AM84 °FPartly cloudy.5 mph79%29.89 "HgN/A
3:00 AMN/AScattered showers.6 mphN/A29.86 "HgN/A
2:00 AM84 °FScattered showers. Passing clouds.6 mph84%29.86 "HgN/A
1:00 AM84 °FScattered showers. Partly cloudy.9 mph84%29.89 "HgN/A
12:00 AM84 °FScattered showers. Overcast.9 mph84%29.89 "HgN/A
11:00 PM
Tue, Sep 1
84 °FPartly cloudy.9 mph84%29.92 "HgN/A
Weather by CustomWeather, © 2015

See weather overviewHow to use our weather pages